Location: Caltech
(34.1382°N, 118.1253°W)
Time: 16:21:56
(UTC-08:00)

SO-67 - Visible Passes

Search period start: 25 January 2015 00:00
Search period end: 04 February 2015 00:00
Orbit: 450 x 454 km, 97.1° (Epoch: 25 January)

Date Brightness Start Highest point End Pass type
(mag) Time Alt. Az. Time Alt. Az. Time Alt. Az.
25 Jan ? 18:50:47 10° SSW 18:53:35 23° W 18:56:20 10° NW visible
26 Jan ? 06:16:05 10° NE 06:18:55 24° E 06:21:47 10° SSE visible
26 Jan ? 18:15:47 10° S 18:19:09 80° WSW 18:22:34 10° NNW visible
27 Jan ? 17:41:56 10° SE 17:44:53 29° ENE 17:47:53 10° NNE visible
27 Jan ? 19:16:56 10° WSW 19:17:52 11° W 19:18:36 10° WNW visible
28 Jan ? 18:40:10 10° SSW 18:43:15 32° W 18:46:20 10° NNW visible
29 Jan ? 06:06:11 10° NE 06:08:32 18° E 06:10:58 10° SE visible
29 Jan ? 18:05:28 10° SSE 18:08:50 69° ENE 18:12:13 10° N visible
30 Jan ? 19:05:17 10° SW 19:07:22 15° W 19:09:20 10° WNW visible
31 Jan ? 18:29:30 10° S 18:32:46 47° W 18:36:03 10° NNW visible
01 Feb ? 05:56:25 10° ENE 05:57:58 13° E 05:59:41 10° ESE visible
01 Feb ? 17:55:06 10° SSE 17:58:21 46° ENE 18:01:37 10° N visible
02 Feb ? 18:54:04 10° SSW 18:56:43 21° W 18:59:19 10° NW visible
03 Feb ? 06:19:02 10° NE 06:21:59 27° E 06:24:58 10° SSE visible
03 Feb ? 18:18:46 10° S 18:22:08 70° W 18:25:32 10° NNW visible
